DAL8 RJTT-KLAX

Flight info

Callsign DAL8
Flight time N/A
Altitude 37000
Route OPPAR UTIBO Y803 POROT Y809 IDLAN Y812 ADNAP OTR7 EMRON 41N160E/N0481F390 44N170E 45N180E 47N170W 50N160W/N0491F410 52N150W 50N140W 45N130W DCT NATTE DCT OAK DCT BURGL IRNMN2
Aircraft A359/H-SDE2E3GHIJ3J4J5LM1ORWXY/LB1D1

Departure

Time N/A
Airport Tokyo Haneda International Airport (RJTT)

Arrival

Time 2026-05-06 20:30
Airport Los Angeles International Airport (KLAX)
Time Latitude Longitude Altitude Speed Heading
2026-05-06 20:23 34.03112 -118.32641 6078 ft 228 kts 80°
2026-05-06 20:24 34.03282 -118.30740 5706 ft 229 kts 81°
2026-05-06 20:24 34.03461 -118.28833 5376 ft 229 kts 80°
2026-05-06 20:24 34.03663 -118.26930 5141 ft 227 kts 80°
2026-05-06 20:24 34.03704 -118.25031 4780 ft 230 kts 100°
2026-05-06 20:25 34.03018 -118.23304 4448 ft 230 kts 126°
2026-05-06 20:25 34.01761 -118.22128 4147 ft 230 kts 154°
2026-05-06 20:25 34.00283 -118.21470 3826 ft 230 kts 165°
2026-05-06 20:25 33.98698 -118.21520 3472 ft 229 kts 199°
2026-05-06 20:26 33.97362 -118.22481 3237 ft 218 kts 226°
2026-05-06 20:26 33.96688 -118.24022 3018 ft 203 kts 261°
2026-05-06 20:26 33.96610 -118.25674 2726 ft 192 kts 269°
2026-05-06 20:26 33.96544 -118.27241 2383 ft 185 kts 264°
2026-05-06 20:27 33.96380 -118.28772 2050 ft 181 kts 259°
2026-05-06 20:27 33.96226 -118.30187 1831 ft 160 kts 262°
2026-05-06 20:27 33.96104 -118.31454 1606 ft 146 kts 260°
2026-05-06 20:27 33.95986 -118.32614 1425 ft 134 kts 260°
2026-05-06 20:28 33.95873 -118.33705 1244 ft 129 kts 259°
2026-05-06 20:28 33.95763 -118.34774 1064 ft 127 kts 261°
2026-05-06 20:28 33.95658 -118.35813 896 ft 123 kts 261°
2026-05-06 20:28 33.95551 -118.36828 695 ft 124 kts 260°
2026-05-06 20:29 33.95449 -118.37859 552 ft 126 kts 261°
2026-05-06 20:29 33.95345 -118.38904 386 ft 125 kts 260°
2026-05-06 20:29 33.95240 -118.39928 210 ft 122 kts 260°
2026-05-06 20:29 33.95138 -118.40892 139 ft 111 kts 263°
2026-05-06 20:30 33.95056 -118.41707 129 ft 74 kts 262°
2026-05-06 20:30 33.95008 -118.42163 132 ft 27 kts 263°
2026-05-06 20:30 33.94967 -118.42429 128 ft 38 kts 248°
2026-05-06 20:31 33.94854 -118.42679 124 ft 22 kts 231°
2026-05-06 20:31 33.94839 -118.42698 124 ft 3 kts 221°
2026-05-06 20:31 33.94787 -118.42738 122 ft 15 kts 211°
2026-05-06 20:31 33.94678 -118.42777 125 ft 19 kts 176°
2026-05-06 20:32 33.94633 -118.42725 122 ft 5 kts 81°
2026-05-06 20:32 33.94644 -118.42628 132 ft 20 kts 83°
2026-05-06 20:32 33.94656 -118.42494 129 ft 0 kts 83°